Change the Weather History Date:

Friday, December 6, 2013

  Actual Average Record
Temperature  
Mean Temperature 70 °F -  
Max Temperature 82 °F 65 °F 82 °F (2013)
Min Temperature 58 °F 42 °F 26 °F (2000)
Cooling Degree Days 5    
Growing Degree Days 20 (Base 50)    
Moisture  
Dew Point 64 °F    
Average Humidity 97    
Maximum Humidity 100    
Minimum Humidity 72    
Precipitation  
Precipitation 0.00 in - - ()
Sea Level Pressure  
Sea Level Pressure 30.12 in    
Wind  
Wind Speed 1 mph (South)    
Max Wind Speed 13 mph    
Max Gust Speed 17 mph    
Visibility 7 miles    
Events Fog    
Averages and records for this station are not official NWS values.
T = Trace of Precipitation, MM = Missing Value Source: NWS Daily Summary

Daily Weather History Graph

Daily Weather History Graph

Search for Another Location

Airport or City:

Trip Planner

Search our weather history database for the weather conditions in past years. The results will help you decide how hot, cold, wet, or windy it might be!

Date:

Astronomy

Dec. 06, 2013 Rise Set
Actual Time 7:12 AM EST 5:21 PM EST
Civil Twilight 6:46 AM EST 5:48 PM EST
Nautical Twilight 6:15 AM EST 6:19 PM EST
Astronomical Twilight 5:46 AM EST 6:48 PM EST
Moon 10:25 AM EST (12/6) 9:42 PM EST (12/6)
Length of Visible Light 11h 02m
Length of Day
10h 09m
Waxing Crescent, 19% of the Moon is Illuminated
Dec 6
Waxing Crescent
Dec 9
First Quarter
Dec 17
Full
Dec 25
Last Quarter
Jan 1
New

Hourly Weather History & Observations

Time (EST) Temp. Heat Index Dew Point Humidity Pressure Visibility Wind Dir Wind Speed Gust Speed Precip Events Conditions
12:58 AM 62.2 °F - 62.2 °F 100% 30.12 in 10.0 mi Calm Calm - N/A   Clear
1:33 AM 59.0 °F - 59.0 °F 100% 30.11 in 8.0 mi Calm Calm - N/A   Clear
1:43 AM 60.8 °F - 60.8 °F 100% 30.11 in 10.0 mi Calm Calm - N/A   Clear
1:58 AM 60.6 °F - 60.6 °F 100% 30.13 in 10.0 mi Calm Calm - N/A   Clear
2:03 AM 60.8 °F - 60.8 °F 100% 30.11 in 8.0 mi Calm Calm - N/A   Clear
2:13 AM 59.0 °F - 59.0 °F 100% 30.12 in 10.0 mi Calm Calm - N/A   Clear
2:58 AM 59.9 °F - 59.9 °F 100% 30.13 in 9.0 mi Calm Calm - N/A   Clear
3:08 AM 60.8 °F - 60.8 °F 100% 30.12 in 10.0 mi Calm Calm - N/A   Clear
3:33 AM 60.8 °F - 60.8 °F 100% 30.12 in 8.0 mi Calm Calm - N/A   Clear
3:43 AM 60.8 °F - 60.8 °F 100% 30.12 in 9.0 mi Calm Calm - N/A   Clear
3:58 AM 59.9 °F - 59.9 °F 100% 30.13 in 10.0 mi Calm Calm - N/A   Clear
4:38 AM 59.0 °F - 59.0 °F 100% 30.11 in 7.0 mi Calm Calm - N/A   Clear
4:48 AM 59.0 °F - 59.0 °F 100% 30.11 in 10.0 mi Calm Calm - N/A   Clear
4:58 AM 58.6 °F - 58.6 °F 100% 30.11 in 10.0 mi North 1.2 mph - N/A   Clear
5:03 AM 59.0 °F - 59.0 °F 100% 30.10 in 9.0 mi SE 2.3 mph - N/A   Clear
5:18 AM 59.0 °F - 59.0 °F 100% 30.10 in 1.8 mi Calm Calm - N/A   Clear
5:33 AM 59.0 °F - 59.0 °F 100% 30.10 in 1.0 mi Calm Calm - N/A   Clear
5:43 AM 59.0 °F - 59.0 °F 100% 30.10 in 0.8 mi Calm Calm - N/A   Clear
5:58 AM 59.4 °F - 59.4 °F 100% 30.12 in 1.0 mi Calm Calm - N/A   Mist
6:03 AM 59.0 °F - 59.0 °F 100% 30.11 in 0.8 mi Calm Calm - N/A   Mist
6:23 AM 59.0 °F - 59.0 °F 100% 30.10 in 1.0 mi Calm Calm - N/A   Mist
6:28 AM 59.0 °F - 59.0 °F 100% 30.11 in 2.5 mi North - - N/A   Partly Cloudy
6:33 AM 60.8 °F - 60.8 °F 100% 30.11 in 5.0 mi Calm Calm - N/A   Clear
6:53 AM 60.8 °F - 60.8 °F 100% 30.11 in 2.5 mi Calm Calm - N/A   Clear
6:58 AM 60.8 °F - 60.8 °F 100% 30.12 in 2.0 mi Calm Calm - N/A   Clear
7:03 AM 60.8 °F - 60.8 °F 100% 30.11 in 1.8 mi Calm Calm - N/A   Clear
7:08 AM 60.8 °F - 60.8 °F 100% 30.11 in 0.8 mi Calm Calm - N/A   Clear
7:13 AM 59.0 °F - 59.0 °F 100% 30.12 in 0.5 mi Calm Calm - N/A Fog Fog
7:18 AM 59.0 °F - 59.0 °F 100% 30.12 in 1.0 mi Calm Calm - N/A   Clear
7:23 AM 59.0 °F - 59.0 °F 100% 30.12 in 1.0 mi Calm Calm - N/A   Clear
7:25 AM 59.0 °F - 59.0 °F 100% 30.12 in 5.0 mi NE 1.2 mph - N/A Fog Shallow Fog
7:38 AM 59.0 °F - 59.0 °F 100% 30.12 in 4.0 mi SSE 2.3 mph - N/A   Clear
7:58 AM 63.5 °F - 63.5 °F 100% 30.14 in 10.0 mi Calm Calm - N/A   Clear
8:58 AM 67.1 °F - 67.1 °F 100% 30.15 in 10.0 mi Variable 1.2 mph - N/A   Clear
9:58 AM 73.6 °F - 73.6 °F 100% 30.16 in 10.0 mi SSW 6.9 mph - N/A   Clear
10:58 AM 77.7 °F - 75.2 °F 92% 30.15 in 10.0 mi South 8.1 mph - N/A   Partly Cloudy
11:58 AM 79.2 °F - 74.8 °F 87% 30.14 in 10.0 mi SSW 9.2 mph - N/A   Clear
12:58 PM 81.0 °F 86.3 °F 74.3 °F 80% 30.11 in 10.0 mi SW 9.2 mph - N/A   Mostly Cloudy
1:58 PM 82.0 °F 87.7 °F 73.2 °F 75% 30.09 in 10.0 mi SW 12.7 mph 17.3 mph N/A   Scattered Clouds
2:58 PM 81.0 °F 85.1 °F 71.6 °F 73% 30.08 in 10.0 mi SW 9.2 mph - N/A   Mostly Cloudy
3:58 PM 81.3 °F 85.6 °F 71.6 °F 72% 30.07 in 10.0 mi South 8.1 mph - N/A   Mostly Cloudy
4:58 PM 79.2 °F - 71.1 °F 76% 30.09 in 10.0 mi South 3.5 mph - N/A   Clear
5:58 PM 74.8 °F - 70.0 °F 85% 30.10 in 10.0 mi Calm Calm - N/A   Clear
6:58 PM 71.4 °F - 71.4 °F 100% 30.12 in 10.0 mi SSE 2.3 mph - N/A   Clear
7:58 PM 70.3 °F - 70.3 °F 100% 30.12 in 10.0 mi SSE 5.8 mph - N/A   Partly Cloudy
8:58 PM 68.9 °F - 68.9 °F 100% 30.12 in 10.0 mi South 4.6 mph - N/A   Clear
9:58 PM 67.6 °F - 67.6 °F 100% 30.13 in 10.0 mi North - - N/A   Clear
10:03 PM 68.0 °F - 68.0 °F 100% 30.13 in 10.0 mi Calm Calm - N/A   Clear
10:58 PM 66.6 °F - 66.6 °F 100% 30.14 in 10.0 mi Calm Calm - N/A   Clear
11:58 PM 65.5 °F - 65.5 °F 100% 30.13 in 10.0 mi SSE 3.5 mph - N/A   Clear